Weather in Mirnyy

Russia / Stavropol Krai     43°56′52″N   42°40′26″E
temp.,
°C
wind,
m/s
gust,
m/s
humid.,
%
clouds,
%
prec.,
mm/h
press.,
hPa
HPBL,
m
23 may, mon
mon2300:00+9wsw229039 0.6 100415
03:00+8ssw118472 0.7 100411
06:00+10w2284100 0.0 100480
09:00+13n3282100 0.1 1003684
12:00+13nne3475100 0.4 1004894
15:00+10wnw3796100 6.4 1005498
18:00+10wsw2394100 6.4 1005199
21:00+9wnw1196100 10.9 100765
24 may, tue
tue2400:00+8w3893100 4.6 1008536
03:00+7sw3792100 6.4 1008269
06:00+8w4989100 0.6 1010473
09:00+10wnw3579100 0.8 1010802
12:00+11nnw4476100 0.8 10101063
15:00+9ne1191100 3.1 1011255
18:00+7ssw4594100 11.5 1014209
21:00+7w3794100 13.3 1016338
25 may, wed
wed2500:00+6sw3690100 0.6 1016234
03:00+7sw239286 0.8 1017112
06:00+8wsw248773 0.0 1018196
09:00+11nnw457549 0.3 1018913
12:00+11nnw447780 1.6 1019899
15:00+12nw457281 2.9 10191029
18:00+9wsw248799 0.7 1022111
21:00+9wsw3487100 0.9 102397
26 may, thu
thu2600:00+8sw228696 0.0 102332
03:00+8sw2283100 0.0 102325
06:00+9w12825 0.0 1023113
09:00+12nnw236720 0.1 10231099
12:00+14n325986 0.1 10221322
15:00+15ne215774 0.1 10211229
18:00+14ese337319 0.0 1021477
21:00+9s2287100 0.0 102212
27 may, fri
fri2700:00+8ssw2286100 0.0 102119
03:00+9ssw227938 0.0 102114
06:00+11ssw22785 0.0 102142
09:00+16n22655 0.0 1020748
12:00+18n33582 0.0 10191459
15:00+18nnw325889 0.0 10181312
18:00+17nnw227186 0.0 1018428
21:00+13n118494 0.0 102012